| time (UTC) | temp F | wind direction | speed knots | gust knots | rain 1hr in | rain 24hr in | rain mn in | humidity % | barometer mb |
| 20260502190759 | 77 | 275 | 0.0 | 0.9 | 0.00 | 0.00 | 0.00 | 34 | 1021.7 |
| 20260502190652 | 77 | 23 | 0.0 | 0.9 | 0.00 | 0.00 | 0.00 | 33 | 1022.4 |
| 20260502190256 | 77 | 290 | 0.0 | 0.9 | 0.00 | 0.00 | 0.00 | 33 | 1022.2 |
| 20260502185751 | 77 | 300 | 0.0 | 0.9 | 0.00 | 0.00 | 0.00 | 33 | 1022.1 |
| 20260502185658 | 77 | 341 | 0.9 | 1.7 | 0.00 | 0.00 | 0.00 | 32 | 1022.3 |
| 20260502185247 | 77 | 351 | 0.0 | 0.0 | 0.00 | 0.00 | 0.00 | 32 | 1021.9 |
| 20260502184744 | 77 | 272 | 1.7 | 2.6 | 0.00 | 0.00 | 0.00 | 33 | 1022.1 |
| 20260502184620 | 76 | 308 | 0.9 | 2.6 | 0.00 | 0.00 | 0.00 | 33 | 1022.6 |
| 20260502184239 | 76 | 304 | 0.9 | 2.6 | 0.00 | 0.00 | 0.00 | 32 | 1022.3 |
| 20260502183749 | 76 | 75 | 1.7 | 3.5 | 0.00 | 0.00 | 0.00 | 33 | 1022.6 |
| 20260502183736 | 75 | 98 | 0.0 | 0.9 | 0.00 | 0.00 | 0.00 | 34 | 1022.3 |
| 20260502183227 | 77 | 327 | 0.9 | 0.9 | 0.00 | 0.00 | 0.00 | 32 | 1022.3 |
| 20260502182722 | 76 | 87 | 0.9 | 1.7 | 0.00 | 0.00 | 0.00 | 32 | 1022.4 |
| 20260502182711 | 76 | 107 | 1.7 | 6.1 | 0.00 | 0.00 | 0.00 | 33 | 1022.7 |
| 20260502182218 | 76 | 117 | 3.5 | 6.1 | 0.00 | 0.00 | 0.00 | 33 | 1022.2 |
| 20260502181737 | 78 | 298 | 0.9 | 1.7 | 0.00 | 0.00 | 0.00 | 32 | 1022.7 |
| 20260502181715 | 77 | 292 | 0.0 | 0.9 | 0.00 | 0.00 | 0.00 | 34 | 1022.3 |
| 20260502181214 | 78 | 277 | 0.0 | 0.9 | 0.00 | 0.00 | 0.00 | 32 | 1022.5 |
| 20260502180710 | 78 | 318 | 0.9 | 0.9 | 0.00 | 0.00 | 0.00 | 33 | 1022.7 |
| 20260502180700 | 77 | 308 | 0.9 | 1.7 | 0.00 | 0.00 | 0.00 | 33 | 1022.9 |
| 20260502180208 | 77 | 263 | 0.0 | 0.9 | 0.00 | 0.00 | 0.00 | 34 | 1022.5 |
| 20260502170126 | 75 | 357 | 0.0 | 0.0 | 0.00 | 0.00 | 0.00 | 35 | 1023.4 |
| 20260502164113 | 75 | 63 | 0.0 | 0.9 | 0.00 | 0.00 | 0.00 | 34 | 1023.3 |
| 20260502163740 | 76 | 351 | 0.0 | 0.9 | 0.00 | 0.00 | 0.00 | 36 | 1023.5 |
| 20260502163609 | 76 | 24 | 0.0 | 0.9 | 0.00 | 0.00 | 0.00 | 34 | 1023.3 |
| 20260502163106 | 76 | 320 | 0.0 | 0.0 | 0.00 | 0.00 | 0.00 | 37 | 1023.2 |
| 20260502162721 | 77 | 351 | 0.0 | 0.9 | 0.00 | 0.00 | 0.00 | 34 | 1023.5 |
| 20260502162603 | 77 | 347 | 0.0 | 0.0 | 0.00 | 0.00 | 0.00 | 34 | 1023.3 |
| 20260502162100 | 75 | 336 | 0.9 | 0.9 | 0.00 | 0.00 | 0.00 | 35 | 1023.3 |
| 20260502161727 | 74 | 310 | 0.0 | 0.9 | 0.00 | 0.00 | 0.00 | 36 | 1023.5 |
| 20260502161556 | 75 | 298 | 0.0 | 0.9 | 0.00 | 0.00 | 0.00 | 34 | 1023.2 |
| 20260502161054 | 72 | 15 | 0.0 | 0.0 | 0.00 | 0.00 | 0.00 | 38 | 1023.4 |
| 20260502160649 | 76 | 342 | 0.9 | 1.7 | 0.00 | 0.00 | 0.00 | 34 | 1023.5 |
| 20260502160552 | 76 | 2 | 0.9 | 1.7 | 0.00 | 0.00 | 0.00 | 33 | 1023.1 |
| 20260502151959 | 76 | 332 | 0.0 | 0.9 | 0.00 | 0.00 | 0.00 | 38 | 1023.1 |
| 20260502151651 | 72 | 0.0 | 0.0 | 0.00 | 0.00 | 0.00 | 41 | 1023.3 | |
| 20260502151455 | 73 | 5 | 0.0 | 0.0 | 0.00 | 0.00 | 0.00 | 39 | 1022.8 |
| 20260502150953 | 70 | 316 | 0.9 | 0.9 | 0.00 | 0.00 | 0.00 | 43 | 1023.0 |
| 20260502150715 | 73 | 353 | 0.0 | 0.9 | 0.00 | 0.00 | 0.00 | 39 | 1023.1 |
| 20260502150450 | 73 | 333 | 0.0 | 0.9 | 0.00 | 0.00 | 0.00 | 39 | 1022.5 |
| 20260502140126 | 71 | 0.0 | 0.0 | 0.00 | 0.00 | 0.00 | 44 | 1023.0 | |
| 20260502130336 | 61 | 339 | 0.0 | 0.0 | 0.00 | 0.00 | 0.00 | 63 | 1022.0 |
| 20260502130151 | 62 | 0.0 | 0.0 | 0.00 | 0.00 | 0.00 | 63 | 1022.2 | |
| 20260502123318 | 59 | 349 | 0.0 | 0.0 | 0.00 | 0.00 | 0.00 | 78 | 1021.6 |
| 20260502123205 | 56 | 0.0 | 0.0 | 0.00 | 0.00 | 0.00 | 84 | 1021.8 | |
| 20260502122815 | 55 | 349 | 0.0 | 0.0 | 0.00 | 0.00 | 0.00 | 86 | 1021.6 |
| 20260502122311 | 53 | 347 | 0.0 | 0.0 | 0.00 | 0.00 | 0.00 | 92 | 1021.3 |
| 20260502122230 | 51 | 0.0 | 0.0 | 0.00 | 0.00 | 0.00 | 93 | 1021.6 | |
| 20260502121809 | 51 | 347 | 0.0 | 0.0 | 0.00 | 0.00 | 0.00 | 93 | 1021.3 |
| 20260502121306 | 50 | 347 | 0.0 | 0.0 | 0.00 | 0.00 | 0.00 | 93 | 1021.5 |
| 20260502121152 | 50 | 0.0 | 0.0 | 0.00 | 0.00 | 0.00 | 93 | 1021.5 | |
| 20260502120803 | 50 | 347 | 0.0 | 0.0 | 0.00 | 0.00 | 0.00 | 93 | 1021.1 |
| 20260502120300 | 50 | 347 | 0.0 | 0.0 | 0.00 | 0.00 | 0.00 | 93 | 1021.1 |
| 20260502120238 | 50 | 0.0 | 0.0 | 0.00 | 0.00 | 0.00 | 93 | 1021.3 | |
| 20260502115758 | 50 | 347 | 0.0 | 0.0 | 0.00 | 0.00 | 0.00 | 93 | 1021.3 |
| 20260502115254 | 50 | 346 | 0.0 | 0.0 | 0.00 | 0.00 | 0.00 | 93 | 1021.1 |
| 20260502115200 | 50 | 0.0 | 0.0 | 0.00 | 0.00 | 0.00 | 93 | 1021.1 | |
| 20260502114750 | 50 | 344 | 0.0 | 0.0 | 0.00 | 0.00 | 0.00 | 93 | 1020.8 |
| 20260502114247 | 50 | 344 | 0.0 | 0.0 | 0.00 | 0.00 | 0.00 | 93 | 1020.9 |
| 20260502114206 | 50 | 0.0 | 0.0 | 0.00 | 0.00 | 0.00 | 93 | 1021.0 | |
| 20260502113745 | 50 | 344 | 0.0 | 0.0 | 0.00 | 0.00 | 0.00 | 93 | 1020.8 |
| 20260502113242 | 51 | 344 | 0.0 | 0.0 | 0.00 | 0.00 | 0.00 | 93 | 1020.8 |
| 20260502113231 | 51 | 0.0 | 0.0 | 0.00 | 0.00 | 0.00 | 92 | 1020.9 | |
| 20260502112740 | 51 | 344 | 0.0 | 0.0 | 0.00 | 0.00 | 0.00 | 92 | 1020.5 |
| 20260502112237 | 51 | 345 | 0.0 | 0.0 | 0.00 | 0.00 | 0.00 | 92 | 1020.5 |
| 20260502112154 | 51 | 0.0 | 0.0 | 0.00 | 0.00 | 0.00 | 92 | 1020.8 | |
| 20260502111734 | 51 | 349 | 0.0 | 0.0 | 0.00 | 0.00 | 0.00 | 92 | 1020.6 |
| 20260502111232 | 51 | 350 | 0.0 | 0.0 | 0.00 | 0.00 | 0.00 | 92 | 1020.5 |
| 20260502111219 | 51 | 0.0 | 0.0 | 0.00 | 0.00 | 0.00 | 91 | 1020.9 | |
| 20260502110729 | 51 | 351 | 0.0 | 0.0 | 0.00 | 0.00 | 0.00 | 91 | 1020.6 |
| 20260502110227 | 52 | 351 | 0.0 | 0.0 | 0.00 | 0.00 | 0.00 | 91 | 1020.7 |
| 20260502110142 | 52 | 0.0 | 0.0 | 0.00 | 0.00 | 0.00 | 91 | 1020.9 | |
| 20260502105725 | 52 | 348 | 0.0 | 0.0 | 0.00 | 0.00 | 0.00 | 91 | 1020.6 |
| 20260502105221 | 52 | 343 | 0.0 | 0.0 | 0.00 | 0.00 | 0.00 | 91 | 1020.4 |
| 20260502105208 | 52 | 0.0 | 0.0 | 0.00 | 0.00 | 0.00 | 91 | 1020.6 | |
| 20260502104719 | 52 | 348 | 0.0 | 0.0 | 0.00 | 0.00 | 0.00 | 91 | 1020.2 |
| 20260502104216 | 52 | 348 | 0.0 | 0.0 | 0.00 | 0.00 | 0.00 | 91 | 1020.1 |
| 20260502104131 | 52 | 0.0 | 0.0 | 0.00 | 0.00 | 0.00 | 91 | 1020.2 | |
| 20260502103714 | 52 | 348 | 0.0 | 0.0 | 0.00 | 0.00 | 0.00 | 91 | 1020.0 |
| 20260502103259 | 52 | 0.0 | 0.0 | 0.00 | 0.00 | 0.00 | 91 | 1020.1 | |
| 20260502103211 | 52 | 348 | 0.0 | 0.0 | 0.00 | 0.00 | 0.00 | 91 | 1019.7 |
| 20260502102708 | 52 | 348 | 0.0 | 0.0 | 0.00 | 0.00 | 0.00 | 91 | 1019.7 |
| 20260502102222 | 52 | 0.0 | 0.0 | 0.00 | 0.00 | 0.00 | 90 | 1020.1 | |
| 20260502102204 | 52 | 352 | 0.0 | 0.0 | 0.00 | 0.00 | 0.00 | 91 | 1019.6 |
| 20260502101703 | 52 | 352 | 0.0 | 0.0 | 0.00 | 0.00 | 0.00 | 90 | 1019.9 |
| 20260502101201 | 52 | 352 | 0.0 | 0.0 | 0.00 | 0.00 | 0.00 | 89 | 1019.8 |
| 20260502101144 | 52 | 0.0 | 0.0 | 0.00 | 0.00 | 0.00 | 89 | 1020.0 | |
| 20260502100658 | 53 | 352 | 0.0 | 0.0 | 0.00 | 0.00 | 0.00 | 89 | 1019.7 |
| 20260502100210 | 53 | 0.0 | 0.0 | 0.00 | 0.00 | 0.00 | 88 | 1020.0 | |
| 20260502100156 | 53 | 351 | 0.0 | 0.0 | 0.00 | 0.00 | 0.00 | 88 | 1019.7 |
| 20260502091212 | 55 | 0.0 | 0.0 | 0.00 | 0.00 | 0.00 | 84 | 1019.9 | |
| 20260502091131 | 55 | 339 | 0.0 | 0.0 | 0.00 | 0.00 | 0.00 | 84 | 1019.5 |
| 20260502090627 | 55 | 335 | 0.0 | 0.0 | 0.00 | 0.00 | 0.00 | 84 | 1019.5 |
| 20260502090155 | 55 | 0.0 | 0.0 | 0.00 | 0.00 | 0.00 | 83 | 1019.9 | |
| 20260502090125 | 55 | 335 | 0.0 | 0.0 | 0.00 | 0.00 | 0.00 | 84 | 1019.6 |
| 20260502071522 | 56 | 296 | 0.0 | 0.0 | 0.00 | 0.00 | 0.00 | 80 | 1019.7 |
| 20260502071201 | 56 | 318 | 0.0 | 0.9 | 0.00 | 0.00 | 0.00 | 79 | 1020.0 |
| 20260502071020 | 56 | 318 | 0.0 | 0.9 | 0.00 | 0.00 | 0.00 | 79 | 1019.6 |
| 20260502070518 | 56 | 343 | 0.0 | 0.0 | 0.00 | 0.00 | 0.00 | 79 | 1019.8 |
| 20260502070247 | 57 | 323 | 0.0 | 0.9 | 0.00 | 0.00 | 0.00 | 79 | 1020.1 |
| 20260502070016 | 57 | 343 | 0.0 | 0.0 | 0.00 | 0.00 | 0.00 | 79 | 1019.8 |
| 20260502065514 | 57 | 340 | 0.0 | 0.0 | 0.00 | 0.00 | 0.00 | 79 | 1019.9 |
| 20260502065150 | 56 | 320 | 0.0 | 0.9 | 0.00 | 0.00 | 0.00 | 80 | 1020.2 |
| 20260502065012 | 57 | 320 | 0.0 | 0.9 | 0.00 | 0.00 | 0.00 | 80 | 1019.9 |
| 20260502064510 | 56 | 339 | 0.0 | 0.9 | 0.00 | 0.00 | 0.00 | 81 | 1019.9 |
| 20260502064112 | 55 | 0.0 | 0.0 | 0.00 | 0.00 | 0.00 | 83 | 1020.2 | |
| 20260502064007 | 56 | 336 | 0.9 | 0.9 | 0.00 | 0.00 | 0.00 | 83 | 1019.8 |
| 20260502063504 | 55 | 341 | 0.0 | 0.0 | 0.00 | 0.00 | 0.00 | 83 | 1019.9 |
| 20260502063138 | 54 | 0.0 | 0.0 | 0.00 | 0.00 | 0.00 | 88 | 1020.3 | |
| 20260502063002 | 54 | 340 | 0.0 | 0.0 | 0.00 | 0.00 | 0.00 | 87 | 1020.1 |
| 20260502062458 | 54 | 348 | 0.0 | 0.0 | 0.00 | 0.00 | 0.00 | 88 | 1020.0 |
| 20260502062204 | 54 | 0.0 | 0.0 | 0.00 | 0.00 | 0.00 | 87 | 1020.0 | |
| 20260502061957 | 54 | 346 | 0.0 | 0.0 | 0.00 | 0.00 | 0.00 | 87 | 1019.8 |
| 20260502061455 | 55 | 345 | 0.0 | 0.0 | 0.00 | 0.00 | 0.00 | 87 | 1019.9 |
| 20260502061229 | 55 | 0.0 | 0.0 | 0.00 | 0.00 | 0.00 | 87 | 1020.1 | |
| 20260502060950 | 55 | 347 | 0.0 | 0.0 | 0.00 | 0.00 | 0.00 | 87 | 1019.8 |
| 20260502060446 | 55 | 350 | 0.0 | 0.0 | 0.00 | 0.00 | 0.00 | 86 | 1019.9 |
| 20260502060152 | 55 | 0.0 | 0.0 | 0.00 | 0.00 | 0.00 | 85 | 1020.1 | |
| 20260502055943 | 55 | 0 | 0.0 | 0.0 | 0.00 | 0.00 | 0.00 | 85 | 1019.7 |
| 20260502055440 | 55 | 347 | 0.0 | 0.0 | 0.00 | 0.00 | 0.00 | 84 | 1020.0 |
| 20260502055258 | 56 | 0.0 | 0.0 | 0.00 | 0.00 | 0.00 | 84 | 1020.1 | |
| 20260502054935 | 56 | 349 | 0.0 | 0.0 | 0.00 | 0.00 | 0.00 | 84 | 1019.9 |
| 20260502054433 | 56 | 344 | 0.0 | 0.0 | 0.00 | 0.00 | 0.00 | 83 | 1020.1 |
| 20260502054140 | 56 | 0.0 | 0.0 | 0.00 | 0.00 | 0.00 | 82 | 1020.2 | |
| 20260502053930 | 56 | 347 | 0.0 | 0.0 | 0.00 | 0.00 | 0.00 | 83 | 1020.1 |
| 20260502053427 | 57 | 347 | 0.0 | 0.0 | 0.00 | 0.00 | 0.00 | 81 | 1020.1 |
| 20260502053103 | 57 | 0.0 | 0.0 | 0.00 | 0.00 | 0.00 | 81 | 1020.2 | |
| 20260502052924 | 57 | 345 | 0.0 | 0.0 | 0.00 | 0.00 | 0.00 | 81 | 1019.9 |
| 20260502052422 | 57 | 349 | 0.0 | 0.0 | 0.00 | 0.00 | 0.00 | 80 | 1019.9 |
| 20260502052231 | 57 | 0.0 | 0.0 | 0.00 | 0.00 | 0.00 | 79 | 1020.1 | |
| 20260502051920 | 57 | 346 | 0.0 | 0.0 | 0.00 | 0.00 | 0.00 | 79 | 1019.8 |
| 20260502051418 | 58 | 343 | 0.0 | 0.0 | 0.00 | 0.00 | 0.00 | 79 | 1019.7 |
| 20260502051154 | 58 | 0.0 | 0.0 | 0.00 | 0.00 | 0.00 | 79 | 1020.0 | |
| 20260502050915 | 58 | 342 | 0.0 | 0.0 | 0.00 | 0.00 | 0.00 | 79 | 1019.7 |
| 20260502050411 | 58 | 331 | 0.0 | 0.0 | 0.00 | 0.00 | 0.00 | 79 | 1019.8 |
| 20260502050219 | 57 | 0.0 | 0.0 | 0.00 | 0.00 | 0.00 | 81 | 1020.1 | |
| 20260502045909 | 57 | 344 | 0.0 | 0.0 | 0.00 | 0.00 | 0.00 | 81 | 1019.8 |
| 20260502045405 | 57 | 335 | 0.0 | 0.0 | 0.00 | 0.00 | 0.00 | 82 | 1019.8 |
| 20260502045142 | 57 | 0.0 | 0.0 | 0.00 | 0.00 | 0.00 | 83 | 1020.1 | |
| 20260502044902 | 57 | 349 | 0.0 | 0.0 | 0.00 | 0.00 | 0.00 | 83 | 1019.7 |
| 20260502044357 | 58 | 4 | 0.0 | 0.0 | 0.00 | 0.00 | 0.00 | 81 | 1019.8 |
| 20260502044208 | 57 | 0.0 | 0.0 | 0.00 | 0.00 | 0.00 | 81 | 1020.0 | |
| 20260502043849 | 57 | 340 | 0.0 | 0.0 | 0.00 | 0.00 | 0.00 | 81 | 1019.6 |
| 20260502043347 | 57 | 327 | 0.0 | 0.0 | 0.00 | 0.00 | 0.00 | 82 | 1019.5 |
| 20260502043131 | 57 | 0.0 | 0.0 | 0.00 | 0.00 | 0.00 | 82 | 1019.9 | |
| 20260502042846 | 57 | 350 | 0.0 | 0.0 | 0.00 | 0.00 | 0.00 | 82 | 1019.6 |
| 20260502042344 | 57 | 346 | 0.0 | 0.0 | 0.00 | 0.00 | 0.00 | 81 | 1019.6 |
| 20260502042216 | 58 | 0.0 | 0.0 | 0.00 | 0.00 | 0.00 | 81 | 1020.0 | |
| 20260502041841 | 58 | 343 | 0.0 | 0.0 | 0.00 | 0.00 | 0.00 | 81 | 1019.7 |
| 20260502041338 | 58 | 344 | 0.0 | 0.0 | 0.00 | 0.00 | 0.00 | 81 | 1019.6 |
| 20260502041222 | 58 | 0.0 | 0.0 | 0.00 | 0.00 | 0.00 | 80 | 1019.8 | |
| 20260502040836 | 58 | 346 | 0.0 | 0.0 | 0.00 | 0.00 | 0.00 | 80 | 1019.6 |
| 20260502040332 | 58 | 350 | 0.0 | 0.0 | 0.00 | 0.00 | 0.00 | 79 | 1019.4 |
| 20260502040247 | 58 | 0.0 | 0.0 | 0.00 | 0.00 | 0.00 | 79 | 1020.0 | |
| 20260502035828 | 59 | 0 | 0.0 | 0.0 | 0.00 | 0.00 | 0.00 | 78 | 1019.7 |
| 20260502035325 | 59 | 345 | 0.0 | 0.0 | 0.00 | 0.00 | 0.00 | 77 | 1019.5 |
| 20260502035210 | 59 | 0.0 | 0.0 | 0.00 | 0.00 | 0.00 | 76 | 1020.0 | |
| 20260502034823 | 59 | 345 | 0.0 | 0.0 | 0.00 | 0.00 | 0.00 | 76 | 1019.6 |
| 20260502034321 | 59 | 349 | 0.0 | 0.0 | 0.00 | 0.00 | 0.00 | 75 | 1019.6 |
| 20260502034132 | 60 | 0.0 | 0.0 | 0.00 | 0.00 | 0.00 | 75 | 1020.0 | |
| 20260502033819 | 60 | 344 | 0.0 | 0.0 | 0.00 | 0.00 | 0.00 | 75 | 1019.8 |
| 20260502033316 | 60 | 351 | 0.0 | 0.0 | 0.00 | 0.00 | 0.00 | 75 | 1019.5 |
| 20260502033158 | 60 | 0.0 | 0.0 | 0.00 | 0.00 | 0.00 | 73 | 1019.9 | |
| 20260502032813 | 60 | 339 | 0.0 | 0.0 | 0.00 | 0.00 | 0.00 | 73 | 1019.6 |
| 20260502032309 | 60 | 337 | 0.0 | 0.0 | 0.00 | 0.00 | 0.00 | 72 | 1019.4 |
| 20260502032224 | 60 | 0.0 | 0.0 | 0.00 | 0.00 | 0.00 | 73 | 1019.8 | |
| 20260502031807 | 60 | 346 | 0.0 | 0.0 | 0.00 | 0.00 | 0.00 | 73 | 1019.6 |
| 20260502031305 | 60 | 357 | 0.0 | 0.0 | 0.00 | 0.00 | 0.00 | 72 | 1019.7 |
| 20260502031146 | 61 | 0.0 | 0.0 | 0.00 | 0.00 | 0.00 | 72 | 1019.9 | |
| 20260502030803 | 61 | 326 | 0.0 | 0.0 | 0.00 | 0.00 | 0.00 | 72 | 1019.6 |
| 20260502030301 | 61 | 343 | 0.0 | 0.0 | 0.00 | 0.00 | 0.00 | 73 | 1019.6 |
| 20260502030210 | 61 | 0.0 | 0.0 | 0.00 | 0.00 | 0.00 | 71 | 1019.5 | |
| 20260502025758 | 61 | 0 | 0.0 | 0.0 | 0.00 | 0.00 | 0.00 | 71 | 1019.2 |
| 20260502025256 | 61 | 351 | 0.0 | 0.0 | 0.00 | 0.00 | 0.00 | 71 | 1019.2 |
| 20260502025133 | 61 | 0.0 | 0.0 | 0.00 | 0.00 | 0.00 | 71 | 1019.5 | |
| 20260502024753 | 61 | 348 | 0.0 | 0.0 | 0.00 | 0.00 | 0.00 | 71 | 1019.5 |
| 20260502024251 | 62 | 352 | 0.0 | 0.0 | 0.00 | 0.00 | 0.00 | 71 | 1019.6 |
| 20260502024159 | 62 | 0.0 | 0.0 | 0.00 | 0.00 | 0.00 | 69 | 1019.7 | |
| 20260502023749 | 62 | 338 | 0.0 | 0.0 | 0.00 | 0.00 | 0.00 | 69 | 1019.3 |
| 20260502023246 | 62 | 339 | 0.0 | 0.0 | 0.00 | 0.00 | 0.00 | 67 | 1019.4 |
| 20260502023242 | 62 | 0.0 | 0.0 | 0.00 | 0.00 | 0.00 | 68 | 1019.7 | |
| 20260502022744 | 62 | 337 | 0.0 | 0.0 | 0.00 | 0.00 | 0.00 | 69 | 1019.4 |
| 20260502022250 | 62 | 0.0 | 0.0 | 0.00 | 0.00 | 0.00 | 68 | 1019.6 | |
| 20260502022239 | 62 | 347 | 0.0 | 0.0 | 0.00 | 0.00 | 0.00 | 68 | 1019.3 |
| 20260502021737 | 62 | 344 | 0.0 | 0.0 | 0.00 | 0.00 | 0.00 | 68 | 1019.3 |
| 20260502021234 | 62 | 347 | 0.0 | 0.0 | 0.00 | 0.00 | 0.00 | 68 | 1019.1 |
| 20260502021212 | 62 | 0.0 | 0.0 | 0.00 | 0.00 | 0.00 | 68 | 1019.4 | |
| 20260502020731 | 62 | 344 | 0.0 | 0.0 | 0.00 | 0.00 | 0.00 | 68 | 1019.0 |
| 20260502020238 | 62 | 0.0 | 0.0 | 0.00 | 0.00 | 0.00 | 67 | 1019.0 | |
| 20260502020228 | 62 | 340 | 0.0 | 0.0 | 0.00 | 0.00 | 0.00 | 66 | 1018.9 |
| 20260502015726 | 62 | 330 | 0.0 | 0.0 | 0.00 | 0.00 | 0.00 | 67 | 1018.8 |
| 20260502015222 | 62 | 345 | 0.0 | 0.0 | 0.00 | 0.00 | 0.00 | 66 | 1018.6 |
| 20260502015200 | 62 | 0.0 | 0.0 | 0.00 | 0.00 | 0.00 | 66 | 1019.0 | |
| 20260502014720 | 62 | 358 | 0.0 | 0.0 | 0.00 | 0.00 | 0.00 | 66 | 1018.7 |
| 20260502014217 | 62 | 322 | 0.0 | 0.9 | 0.00 | 0.00 | 0.00 | 67 | 1018.4 |
| 20260502014122 | 62 | 0.0 | 0.0 | 0.00 | 0.00 | 0.00 | 66 | 1018.6 | |
| 20260502013713 | 62 | 352 | 0.0 | 0.0 | 0.00 | 0.00 | 0.00 | 66 | 1018.3 |
| 20260502013208 | 62 | 24 | 0.0 | 0.0 | 0.00 | 0.00 | 0.00 | 66 | 1018.2 |
| 20260502013148 | 63 | 2 | 0.0 | 0.9 | 0.00 | 0.00 | 0.00 | 66 | 1018.3 |
| 20260502012705 | 63 | 352 | 0.0 | 0.0 | 0.00 | 0.00 | 0.00 | 66 | 1018.0 |
| 20260502012214 | 63 | 13 | 0.0 | 0.9 | 0.00 | 0.00 | 0.00 | 65 | 1018.3 |
| 20260502012204 | 63 | 359 | 0.0 | 0.0 | 0.00 | 0.00 | 0.00 | 65 | 1017.9 |
| 20260502011700 | 63 | 357 | 0.0 | 0.0 | 0.00 | 0.00 | 0.00 | 65 | 1018.1 |
| 20260502011239 | 63 | 0.0 | 0.0 | 0.00 | 0.00 | 0.00 | 65 | 1018.1 | |
| 20260502011156 | 63 | 16 | 0.0 | 0.0 | 0.00 | 0.00 | 0.00 | 65 | 1018.0 |
| 20260502010654 | 63 | 352 | 0.0 | 0.0 | 0.00 | 0.00 | 0.00 | 65 | 1017.9 |
| 20260502010201 | 63 | 0.0 | 0.0 | 0.00 | 0.00 | 0.00 | 64 | 1018.0 | |
| 20260502010149 | 63 | 347 | 0.0 | 0.0 | 0.00 | 0.00 | 0.00 | 65 | 1017.7 |
| 20260502005647 | 64 | 357 | 0.0 | 0.0 | 0.00 | 0.00 | 0.00 | 64 | 1017.7 |
| 20260502005248 | 64 | 0.0 | 0.0 | 0.00 | 0.00 | 0.00 | 63 | 1017.9 | |
| 20260502005145 | 64 | 354 | 0.0 | 0.0 | 0.00 | 0.00 | 0.00 | 64 | 1017.5 |
| 20260502004641 | 64 | 340 | 0.0 | 0.0 | 0.00 | 0.00 | 0.00 | 63 | 1017.6 |
| 20260502004150 | 64 | 0.0 | 0.0 | 0.00 | 0.00 | 0.00 | 62 | 1017.8 | |
| 20260502004137 | 64 | 346 | 0.0 | 0.0 | 0.00 | 0.00 | 0.00 | 62 | 1017.7 |
| 20260502003635 | 64 | 356 | 0.0 | 0.0 | 0.00 | 0.00 | 0.00 | 62 | 1017.4 |
| 20260502003132 | 64 | 6 | 0.0 | 0.0 | 0.00 | 0.00 | 0.00 | 62 | 1017.6 |
| 20260502003113 | 64 | 0.0 | 0.0 | 0.00 | 0.00 | 0.00 | 62 | 1017.5 | |
| 20260502002628 | 64 | 357 | 0.0 | 0.0 | 0.00 | 0.00 | 0.00 | 62 | 1017.1 |
| 20260502002241 | 64 | 0.0 | 0.0 | 0.00 | 0.00 | 0.00 | 61 | 1017.5 | |
| 20260502002126 | 64 | 354 | 0.0 | 0.0 | 0.00 | 0.00 | 0.00 | 61 | 1017.3 |
| 20260502001623 | 64 | 356 | 0.0 | 0.0 | 0.00 | 0.00 | 0.00 | 61 | 1017.1 |
| 20260502001203 | 64 | 0.0 | 0.0 | 0.00 | 0.00 | 0.00 | 62 | 1017.2 | |
| 20260502001121 | 64 | 7 | 0.0 | 0.0 | 0.00 | 0.00 | 0.00 | 62 | 1017.1 |
| 20260502000619 | 64 | 353 | 0.0 | 0.0 | 0.00 | 0.00 | 0.00 | 61 | 1017.0 |
| 20260502000228 | 64 | 9 | 0.0 | 0.9 | 0.00 | 0.00 | 0.00 | 62 | 1017.1 |
| 20260502000116 | 64 | 352 | 0.0 | 0.0 | 0.00 | 0.00 | 0.00 | 62 | 1016.8 |
| 20260501235612 | 64 | 14 | 0.0 | 0.9 | 0.00 | 0.00 | 0.00 | 62 | 1016.7 |
| 20260501235151 | 65 | 0.0 | 0.0 | 0.00 | 0.00 | 0.00 | 61 | 1017.1 | |
| 20260501235108 | 65 | 10 | 0.0 | 0.0 | 0.00 | 0.00 | 0.00 | 61 | 1016.8 |
| 20260501234603 | 65 | 351 | 0.0 | 0.0 | 0.00 | 0.00 | 0.00 | 61 | 1016.7 |
| 20260501234237 | 65 | 0.0 | 0.0 | 0.00 | 0.00 | 0.00 | 60 | 1016.9 | |
| 20260501234101 | 65 | 346 | 0.0 | 0.0 | 0.00 | 0.00 | 0.00 | 61 | 1016.5 |
| 20260501233559 | 65 | 351 | 0.0 | 0.0 | 0.00 | 0.00 | 0.00 | 59 | 1016.5 |
| 20260501233139 | 65 | 356 | 0.0 | 0.9 | 0.00 | 0.00 | 0.00 | 59 | 1016.9 |
| 20260501233056 | 65 | 2 | 0.0 | 0.0 | 0.00 | 0.00 | 0.00 | 60 | 1016.5 |
| 20260501232552 | 65 | 29 | 0.0 | 0.0 | 0.00 | 0.00 | 0.00 | 60 | 1016.6 |
| 20260501232204 | 65 | 5 | 0.0 | 0.9 | 0.00 | 0.00 | 0.00 | 59 | 1016.6 |
| 20260501232049 | 65 | 346 | 0.0 | 0.0 | 0.00 | 0.00 | 0.00 | 59 | 1016.3 |
| 20260501231547 | 65 | 346 | 0.0 | 0.0 | 0.00 | 0.00 | 0.00 | 59 | 1016.3 |
| 20260501231229 | 65 | 25 | 0.0 | 0.9 | 0.00 | 0.00 | 0.00 | 58 | 1016.6 |
| 20260501231045 | 65 | 344 | 0.0 | 0.0 | 0.00 | 0.00 | 0.00 | 59 | 1016.3 |
| 20260501230543 | 65 | 40 | 0.0 | 0.9 | 0.00 | 0.00 | 0.00 | 59 | 1016.3 |
| 20260501230152 | 65 | 359 | 0.9 | 2.6 | 0.00 | 0.00 | 0.00 | 58 | 1016.5 |
| 20260501230041 | 65 | 3 | 1.7 | 2.6 | 0.00 | 0.00 | 0.00 | 58 | 1016.3 |
| 20260501225538 | 65 | 5 | 0.0 | 0.0 | 0.00 | 0.00 | 0.00 | 58 | 1016.3 |
| 20260501225237 | 65 | 6 | 0.9 | 2.6 | 0.00 | 0.00 | 0.00 | 57 | 1016.7 |
| 20260501225034 | 65 | 341 | 1.7 | 2.6 | 0.00 | 0.00 | 0.00 | 57 | 1016.2 |
| 20260501224532 | 65 | 43 | 1.7 | 1.7 | 0.00 | 0.00 | 0.00 | 57 | 1016.3 |
| 20260501224140 | 65 | 18 | 0.0 | 0.9 | 0.00 | 0.00 | 0.00 | 57 | 1016.5 |
| 20260501224029 | 65 | 13 | 0.0 | 0.9 | 0.00 | 0.00 | 0.00 | 57 | 1016.2 |
| 20260501223526 | 65 | 0 | 0.0 | 0.0 | 0.00 | 0.00 | 0.00 | 57 | 1016.1 |
| 20260501223226 | 65 | 16 | 0.0 | 0.9 | 0.00 | 0.00 | 0.00 | 57 | 1016.5 |
| 20260501223022 | 65 | 319 | 0.0 | 0.9 | 0.00 | 0.00 | 0.00 | 57 | 1016.3 |
| 20260501222518 | 65 | 28 | 1.7 | 1.7 | 0.00 | 0.00 | 0.00 | 57 | 1016.4 |
| 20260501222220 | 65 | 49 | 0.9 | 1.7 | 0.00 | 0.00 | 0.00 | 57 | 1016.5 |
| 20260501222015 | 65 | 54 | 0.9 | 0.9 | 0.00 | 0.00 | 0.00 | 57 | 1016.1 |
| 20260501221511 | 65 | 54 | 0.0 | 0.9 | 0.00 | 0.00 | 0.00 | 56 | 1016.2 |
| 20260501221246 | 65 | 95 | 0.0 | 0.9 | 0.00 | 0.00 | 0.00 | 56 | 1016.4 |
| 20260501221009 | 65 | 355 | 0.0 | 0.9 | 0.00 | 0.00 | 0.00 | 56 | 1016.1 |
| 20260501220507 | 66 | 110 | 0.9 | 0.9 | 0.00 | 0.00 | 0.00 | 56 | 1016.2 |
| 20260501220209 | 65 | 38 | 0.9 | 1.7 | 0.00 | 0.00 | 0.00 | 56 | 1016.6 |
| 20260501220003 | 65 | 23 | 0.9 | 0.9 | 0.00 | 0.00 | 0.00 | 57 | 1016.2 |
| 20260501215500 | 65 | 32 | 1.7 | 2.6 | 0.00 | 0.00 | 0.00 | 57 | 1016.2 |
| 20260501215151 | 65 | 43 | 1.7 | 3.5 | 0.00 | 0.00 | 0.00 | 56 | 1016.5 |
| 20260501214955 | 65 | 346 | 0.9 | 1.7 | 0.00 | 0.00 | 0.00 | 57 | 1016.0 |
| 20260501214450 | 65 | 345 | 0.0 | 0.9 | 0.00 | 0.00 | 0.00 | 57 | 1016.4 |
| 20260501214157 | 65 | 46 | 1.7 | 2.6 | 0.00 | 0.00 | 0.00 | 56 | 1016.4 |
| 20260501213946 | 65 | 53 | 0.9 | 0.9 | 0.00 | 0.00 | 0.00 | 57 | 1016.3 |
| 20260501213444 | 65 | 16 | 0.9 | 0.9 | 0.00 | 0.00 | 0.00 | 56 | 1016.3 |
| 20260501213119 | 65 | 5 | 1.7 | 3.5 | 0.00 | 0.00 | 0.00 | 57 | 1016.5 |
| 20260501212938 | 66 | 18 | 0.9 | 1.7 | 0.00 | 0.00 | 0.00 | 57 | 1016.2 |
| 20260501212436 | 65 | 70 | 0.9 | 1.7 | 0.00 | 0.00 | 0.00 | 56 | 1016.1 |
| 20260501212248 | 66 | 354 | 1.7 | 3.5 | 0.00 | 0.00 | 0.00 | 56 | 1016.5 |
| 20260501211933 | 66 | 84 | 1.7 | 2.6 | 0.00 | 0.00 | 0.00 | 56 | 1016.2 |
| 20260501211430 | 65 | 52 | 0.9 | 1.7 | 0.00 | 0.00 | 0.00 | 55 | 1016.4 |
| 20260501211210 | 65 | 55 | 0.9 | 5.2 | 0.00 | 0.00 | 0.00 | 56 | 1016.9 |
| 20260501210927 | 65 | 42 | 0.0 | 0.0 | 0.00 | 0.00 | 0.00 | 57 | 1016.5 |
| 20260501210424 | 65 | 49 | 0.0 | 0.9 | 0.00 | 0.00 | 0.00 | 56 | 1016.6 |
| 20260501210236 | 65 | 341 | 1.7 | 3.5 | 0.00 | 0.00 | 0.00 | 56 | 1017.0 |
| 20260501205921 | 65 | 290 | 0.9 | 1.7 | 0.00 | 0.00 | 0.00 | 56 | 1016.6 |
| 20260501205418 | 66 | 209 | 0.9 | 1.7 | 0.00 | 0.00 | 0.00 | 54 | 1016.8 |
| 20260501205159 | 66 | 4 | 0.9 | 1.7 | 0.00 | 0.00 | 0.00 | 55 | 1017.0 |
| 20260501204915 | 66 | 84 | 0.0 | 0.9 | 0.00 | 0.00 | 0.00 | 55 | 1016.9 |
| 20260501204411 | 65 | 3 | 0.9 | 1.7 | 0.00 | 0.00 | 0.00 | 55 | 1017.0 |
| 20260501204225 | 65 | 59 | 2.6 | 7.0 | 0.00 | 0.00 | 0.00 | 55 | 1017.4 |
| 20260501203907 | 65 | 2 | 0.0 | 0.0 | 0.00 | 0.00 | 0.00 | 55 | 1017.3 |
| 20260501203404 | 65 | 5 | 0.0 | 0.9 | 0.00 | 0.00 | 0.00 | 55 | 1017.2 |
| 20260501203147 | 64 | 59 | 1.7 | 3.5 | 0.00 | 0.00 | 0.00 | 55 | 1017.8 |
| 20260501202902 | 64 | 21 | 0.0 | 0.9 | 0.00 | 0.00 | 0.00 | 55 | 1017.4 |
| 20260501202358 | 65 | 8 | 1.7 | 2.6 | 0.00 | 0.00 | 0.00 | 55 | 1017.4 |
| 20260501202110 | 65 | 6 | 1.7 | 2.6 | 0.00 | 0.00 | 0.00 | 55 | 1017.5 |
| 20260501201855 | 65 | 344 | 0.9 | 2.6 | 0.00 | 0.00 | 0.00 | 55 | 1017.1 |
| 20260501201352 | 65 | 29 | 0.0 | 0.9 | 0.00 | 0.00 | 0.00 | 55 | 1017.4 |
| 20260501201238 | 65 | 9 | 1.7 | 3.5 | 0.00 | 0.00 | 0.00 | 54 | 1017.5 |
| 20260501200848 | 65 | 32 | 0.9 | 0.9 | 0.00 | 0.00 | 0.00 | 55 | 1017.1 |
| 20260501200345 | 65 | 55 | 4.3 | 6.1 | 0.00 | 0.00 | 0.00 | 53 | 1017.1 |
| 20260501200221 | 65 | 86 | 2.6 | 7.8 | 0.00 | 0.00 | 0.00 | 53 | 1017.1 |
| 20260501195844 | 65 | 29 | 0.9 | 0.9 | 0.00 | 0.00 | 0.00 | 53 | 1016.9 |
| 20260501195339 | 65 | 63 | 1.7 | 2.6 | 0.00 | 0.00 | 0.00 | 54 | 1016.8 |
| 20260501195225 | 64 | 69 | 2.6 | 5.2 | 0.00 | 0.00 | 0.00 | 53 | 1017.2 |
| 20260501194835 | 64 | 30 | 2.6 | 2.6 | 0.00 | 0.00 | 0.00 | 53 | 1016.8 |
| 20260501194331 | 65 | 321 | 0.9 | 1.7 | 0.00 | 0.00 | 0.00 | 54 | 1016.6 |
| 20260501194147 | 65 | 49 | 1.7 | 5.2 | 0.00 | 0.00 | 0.00 | 53 | 1017.2 |
| 20260501193828 | 65 | 351 | 0.9 | 1.7 | 0.00 | 0.00 | 0.00 | 53 | 1017.1 |
| 20260501193326 | 65 | 90 | 0.9 | 0.9 | 0.00 | 0.00 | 0.00 | 53 | 1016.8 |
| 20260501193213 | 65 | 38 | 2.6 | 5.2 | 0.00 | 0.00 | 0.00 | 53 | 1017.0 |
| 20260501192824 | 65 | 83 | 1.7 | 2.6 | 0.00 | 0.00 | 0.00 | 54 | 1016.8 |
| 20260501192321 | 65 | 59 | 2.6 | 3.5 | 0.00 | 0.00 | 0.00 | 54 | 1016.4 |
| 20260501192136 | 65 | 54 | 2.6 | 5.2 | 0.00 | 0.00 | 0.00 | 53 | 1016.7 |
| 20260501191817 | 65 | 24 | 0.9 | 0.9 | 0.00 | 0.00 | 0.00 | 54 | 1016.2 |
| 20260501191315 | 65 | 66 | 4.3 | 5.2 | 0.00 | 0.00 | 0.00 | 55 | 1016.9 |
| 20260501191242 | 64 | 359 | 1.7 | 6.1 | 0.00 | 0.00 | 0.00 | 57 | 1017.1 |